Date String (YYYY-MM-DD hh:mm:ss) UTC,Instrument flags,Ambient pressure (hPa),Sample flow (lpm),Bypass flow (lpm),Sample temperature (°C),Ambient temperature (°C),ASC tube jacket temperature (°C),LED temperature (°C),Box temperature (°C),Sample RH (%),Span deviation,Mass concentration (μg/m³),Mass concentration (μg/m³),Mass concentration (μg/m³)
DateTimeUTC,F1_M11,P_M11,Q1_M11,Q2_M11,T1_M11,T2_M11,T3_M11,T4_M11,T5_M11,U1_M11,ZSPAN_M11,X0_M11,X2_M11,X1_M11
2023-02-03 14:00:00,,0831.4,5.00,0.00,22.1,22.4,00.0,30.8,24.1,05.5,0000.0,0001.84,0000.72,0000.30
2023-02-03 14:01:00,,0831.4,5.00,0.00,22.2,22.6,00.0,30.8,24.2,05.5,0000.0,0002.02,0000.73,0000.31
2023-02-03 14:02:00,,0831.4,4.99,0.00,22.2,22.3,00.0,30.9,24.2,05.6,0000.0,0002.11,0000.76,0000.31
2023-02-03 14:03:00,,0831.4,4.99,0.00,22.2,21.9,00.0,30.9,24.1,05.6,0000.0,0002.12,0000.77,0000.30
2023-02-03 14:04:00,,0831.3,4.99,0.00,22.2,21.6,00.0,30.9,24.1,05.6,0000.0,0002.09,0000.76,0000.30
2023-02-03 14:05:00,,0831.4,5.00,0.00,22.2,21.3,00.0,31.0,24.0,05.6,0000.0,0002.08,0000.75,0000.31
2023-02-03 14:06:00,,0831.4,5.01,0.00,22.2,21.1,00.0,31.0,24.0,05.5,0000.0,0002.24,0000.79,0000.32
2023-02-03 14:07:00,,0831.4,5.02,0.00,22.2,20.9,00.0,31.0,23.9,05.5,0000.0,0002.34,0000.81,0000.32
2023-02-03 14:08:00,,0831.4,4.96,0.00,22.1,20.8,00.0,31.0,23.9,05.6,0000.0,0002.32,0000.82,0000.32
2023-02-03 14:09:00,,0831.4,4.99,0.00,22.1,20.6,00.0,31.0,23.8,05.7,0000.0,0002.40,0000.85,0000.32
2023-02-03 14:10:00,,0831.4,4.95,0.00,22.1,20.5,00.0,31.0,23.8,05.7,0000.0,0002.50,0000.84,0000.32
2023-02-03 14:11:00,,0831.4,5.00,0.00,22.0,20.4,00.0,31.0,23.7,05.9,0000.0,0002.11,0000.79,0000.32
2023-02-03 14:12:00,,0831.5,4.99,0.00,22.0,20.3,00.0,31.0,23.7,05.9,0000.0,0001.88,0000.76,0000.31
2023-02-03 14:13:00,,0831.4,5.01,0.00,22.0,20.2,00.0,30.9,23.6,06.0,0000.0,0001.80,0000.73,0000.32
2023-02-03 14:14:00,,0831.4,4.99,0.00,21.9,20.1,00.0,30.9,23.6,05.8,0000.0,0001.83,0000.73,0000.33
2023-02-03 14:15:00,,0831.5,4.99,0.00,21.9,20.1,00.0,30.9,23.5,05.7,0000.0,0001.81,0000.73,0000.34
2023-02-03 14:16:00,,0831.4,5.01,0.00,21.9,20.0,00.0,30.9,23.5,05.8,0000.0,0001.72,0000.71,0000.34
2023-02-03 14:17:00,,0831.5,5.00,0.00,21.8,20.0,00.0,30.9,23.4,05.8,0000.0,0001.66,0000.72,0000.35
2023-02-03 14:18:00,,0831.5,5.00,0.00,21.8,20.0,00.0,30.8,23.4,05.7,0000.0,0001.62,0000.72,0000.35
2023-02-03 14:19:00,,0831.4,5.01,0.00,21.8,20.0,00.0,30.8,23.4,05.7,0000.0,0001.57,0000.71,0000.35
2023-02-03 14:20:00,,0831.4,5.00,0.00,21.7,20.0,00.0,30.8,23.4,05.6,0000.0,0001.45,0000.68,0000.35
2023-02-03 14:21:00,,0831.5,5.00,0.00,21.7,20.0,00.0,30.8,23.3,05.6,0000.0,0001.39,0000.73,0000.35
2023-02-03 14:22:00,,0831.5,4.99,0.00,21.7,19.9,00.0,30.8,23.3,05.6,0000.0,0001.46,0000.78,0000.36
2023-02-03 14:23:00,,0831.5,4.99,0.00,21.7,19.8,00.0,30.7,23.3,05.8,0000.0,0001.51,0000.79,0000.36
2023-02-03 14:24:00,,0831.5,4.98,0.00,21.6,19.8,00.0,30.7,23.2,05.8,0000.0,0001.53,0000.80,0000.35
2023-02-03 14:25:00,,0831.5,5.00,0.00,21.6,19.8,00.0,30.7,23.2,05.8,0000.0,0001.49,0000.79,0000.36
2023-02-03 14:26:00,,0831.6,5.00,0.00,21.6,20.5,00.0,30.6,23.4,05.8,0000.0,0001.39,0000.76,0000.36
2023-02-03 14:27:00,,0831.5,5.00,0.00,21.7,21.8,00.0,30.6,23.7,05.8,0000.0,0001.40,0000.77,0000.35
2023-02-03 14:28:00,,0831.5,4.99,0.00,21.9,22.4,00.0,30.7,23.9,05.9,0000.0,0001.53,0000.80,0000.34
2023-02-03 14:29:00,,0831.5,4.99,0.00,21.9,21.9,00.0,30.7,23.9,06.0,0000.0,0001.58,0000.83,0000.34
2023-02-03 14:30:00,,0831.5,5.02,0.00,21.9,21.5,00.0,30.7,23.8,06.1,0000.0,0001.56,0000.83,0000.35
2023-02-03 14:31:00,,0831.5,4.99,0.00,21.9,21.2,00.0,30.7,23.8,06.2,0000.0,0001.67,0000.86,0000.36
2023-02-03 14:32:00,,0831.5,5.02,0.00,21.9,21.0,00.0,30.8,23.7,06.2,0000.0,0001.70,0000.85,0000.37
2023-02-03 14:33:00,,0831.4,5.01,0.00,21.9,20.8,00.0,30.8,23.7,05.9,0000.0,0001.63,0000.82,0000.37
2023-02-03 14:34:00,,0831.3,4.99,0.00,21.9,20.8,00.0,30.8,23.7,05.8,0000.0,0001.64,0000.81,0000.37
2023-02-03 14:35:00,,0831.3,5.00,0.00,22.0,20.8,00.0,30.8,23.7,05.3,0000.0,0001.65,0000.78,0000.36
2023-02-03 14:36:00,,0831.3,5.02,0.00,22.0,20.8,00.0,30.8,23.7,05.5,0000.0,0001.66,0000.76,0000.36
2023-02-03 14:37:00,,0831.3,5.00,0.00,22.0,20.8,00.0,30.8,23.7,05.5,0000.0,0001.66,0000.76,0000.35
2023-02-03 14:38:00,,0831.4,4.98,0.00,22.0,20.8,00.0,30.8,23.7,05.4,0000.0,0001.73,0000.77,0000.35
2023-02-03 14:39:00,,0831.5,5.01,0.00,22.0,20.7,00.0,30.8,23.8,05.4,0000.0,0001.64,0000.75,0000.36
2023-02-03 14:40:00,,0831.5,5.01,0.00,22.0,20.6,00.0,30.8,23.7,05.5,0000.0,0001.60,0000.71,0000.36
2023-02-03 14:41:00,,0831.4,4.99,0.00,22.0,20.6,00.0,30.8,23.7,05.4,0000.0,0001.65,0000.72,0000.35
2023-02-03 14:42:00,,0831.4,4.99,0.00,22.0,20.6,00.0,30.8,23.7,05.5,0000.0,0001.59,0000.70,0000.35
2023-02-03 14:43:00,,0831.5,5.00,0.00,22.0,20.6,00.0,30.8,23.7,05.5,0000.0,0001.53,0000.68,0000.34
2023-02-03 14:44:00,,0831.5,5.01,0.00,22.0,20.6,00.0,30.8,23.7,05.5,0000.0,0001.53,0000.68,0000.34
2023-02-03 14:45:00,,0831.4,4.98,0.00,21.9,20.5,00.0,30.8,23.6,05.5,0000.0,0001.54,0000.69,0000.34
2023-02-03 14:46:00,,0831.4,5.00,0.00,21.9,20.4,00.0,30.8,23.6,05.5,0000.0,0001.52,0000.70,0000.34
2023-02-03 14:47:00,,0831.4,4.98,0.00,21.9,20.3,00.0,30.8,23.5,05.5,0000.0,0001.53,0000.71,0000.34
2023-02-03 14:48:00,,0831.4,5.00,0.00,21.9,20.3,00.0,30.8,23.5,05.6,0000.0,0001.71,0000.70,0000.34
2023-02-03 14:49:00,,0831.4,5.01,0.00,21.9,20.3,00.0,30.8,23.6,05.8,0000.0,0001.79,0000.71,0000.34
2023-02-03 14:50:00,,0831.4,4.99,0.00,21.9,20.4,00.0,30.8,23.6,05.6,0000.0,0001.74,0000.71,0000.33
2023-02-03 14:51:00,,0831.4,4.99,0.00,21.9,20.4,00.0,30.8,23.6,05.6,0000.0,0001.83,0000.74,0000.33
2023-02-03 14:52:00,,0831.4,4.99,0.00,21.9,20.4,00.0,30.8,23.6,05.7,0000.0,0002.04,0000.79,0000.34
2023-02-03 14:53:00,,0831.4,5.01,0.00,21.9,20.5,00.0,30.8,23.6,05.7,0000.0,0001.98,0000.78,0000.34
2023-02-03 14:54:00,,0831.4,5.01,0.00,21.8,20.4,00.0,30.7,23.5,05.8,0000.0,0002.04,0000.79,0000.34
2023-02-03 14:55:00,,0831.4,4.99,0.00,21.8,20.3,00.0,30.7,23.4,06.2,0000.0,0002.09,0000.81,0000.34
2023-02-03 14:56:00,,0831.4,5.00,0.00,21.8,20.2,00.0,30.7,23.4,05.9,0000.0,0002.25,0000.84,0000.34
2023-02-03 14:57:00,,0831.5,5.01,0.00,21.8,20.1,00.0,30.7,23.4,05.9,0000.0,0002.27,0000.84,0000.33
2023-02-03 14:58:00,,0831.5,5.00,0.00,21.7,20.1,00.0,30.7,23.3,06.1,0000.0,0002.39,0000.87,0000.34
2023-02-03 14:59:00,,0831.5,5.01,0.00,21.7,20.6,00.0,30.7,23.4,05.8,0000.0,0002.26,0000.88,0000.34
